STARLINK-11240 [DTC]

Last updated on Tue Oct 01 2024 00:02:04 GMT+0000 (Coordinated Universal Time)

1 60929U 24155F 24274.39740474 .00002201 00000+0 17447-4 0 9991 2 60929 53.1509 51.1773 0001601 56.5037 303.6136 15.76727828 5896

Satellite not in orbit

STARLINK-11240 [DTC]